IRIS

Last updated on Mon Oct 20 2025 00:03:35 GMT+0000 (Coordinated Universal Time)

1 39197U 13033A 25292.29384836 .00003304 00000+0 39175-3 0 9999 2 39197 97.9443 127.2369 0025536 29.3180 330.9461 14.84985315664618
UTC large
Height (km)
Speed (km/s)
/
Latitude / Longitude
Inclination (degrees)
Orbital Period (minutes)
Azimuth
Elevation
Range (km)
Doppler Factor

Next 0 passes for location: London (51.5072 / 0.1276)

Sorry there are no passes over London.